Location: ????????
(55.4717°N, 39.1821°E)
Time: 08:00:33
(UTC+00:00)

Cosmos 2278 Rocket - Visible Passes

Search period start: 21 June 2025 00:00
Search period end: 01 July 2025 00:00
Orbit: 839 x 845 km, 71.0° (Epoch: 20 June)

Date Brightness Start Highest point End Pass type
(mag) Time Alt. Az. Time Alt. Az. Time Alt. Az.
21 Jun 3.8 20:46:51 11° SSE 20:50:42 21° ESE 20:54:49 10° NE visible
21 Jun 2.2 22:28:39 11° SSW 22:34:03 89° SE 22:39:47 10° NE visible
22 Jun 3.8 20:32:05 11° SE 20:35:52 20° E 20:39:53 10° NE visible
22 Jun 2.2 22:13:53 12° SSW 22:19:11 86° ESE 22:24:55 10° NE visible
23 Jun 3.8 20:17:16 10° SE 20:21:03 19° E 20:24:58 10° ENE visible
23 Jun 2.2 21:59:04 12° SSW 22:04:20 84° ESE 22:10:03 10° NE visible
24 Jun 3.8 20:02:26 10° SE 20:06:13 19° E 20:10:02 10° ENE visible
24 Jun 2.2 21:44:13 12° SSW 21:49:28 81° ESE 21:55:11 10° NE visible
24 Jun 3.7 23:29:06 10° W 23:34:09 32° NW 23:39:14 10° NNE visible
25 Jun 3.8 19:47:44 10° SE 19:51:24 18° E 19:55:05 10° ENE visible
25 Jun 2.2 21:29:18 12° SSW 21:34:37 79° ESE 21:40:19 10° NE visible
25 Jun 3.7 23:14:10 10° W 23:19:15 33° NW 23:24:23 10° NNE visible
26 Jun 3.9 19:33:02 10° SE 19:36:35 17° E 19:40:08 10° ENE visible
26 Jun 2.2 21:14:21 11° SSW 21:19:45 76° ESE 21:25:27 10° NE visible
26 Jun 3.7 22:59:15 10° W 23:04:22 33° NW 23:09:31 10° NNE visible
27 Jun 3.9 19:18:21 10° SE 19:21:46 17° E 19:25:11 10° ENE visible
27 Jun 2.2 20:59:20 10° SSW 21:04:54 73° ESE 21:10:35 10° NE visible
27 Jun 3.7 22:44:19 10° WSW 22:49:29 34° NW 22:54:39 10° NNE visible
28 Jun 3.9 19:03:41 10° SE 19:06:57 16° E 19:10:14 10° ENE visible
28 Jun 2.2 20:44:24 10° SSW 20:50:02 71° ESE 20:55:43 10° NE visible
28 Jun 3.6 22:29:24 10° WSW 22:34:35 35° NW 22:39:48 10° NNE visible
29 Jun 2.2 20:29:34 10° SSW 20:35:11 68° ESE 20:40:51 10° NE visible
29 Jun 3.6 22:14:29 10° WSW 22:19:41 36° NW 22:24:56 10° NNE visible
30 Jun 2.3 20:14:44 10° SSW 20:20:20 66° ESE 20:25:58 10° NE visible
30 Jun 3.6 21:59:34 10° WSW 22:04:48 37° NW 22:10:04 10° NNE visible
30 Jun 4.7 23:46:38 10° WNW 23:50:33 19° NNW 23:54:27 10° NNE visible
